Location: *
(51.1248°S, 108.4023°W)
Time: 09:32:09
(UTC+00:00)

Cosmos 1821 Rocket - Visible Passes

Search period start: 28 October 2021 00:00
Search period end: 07 November 2021 00:00
Orbit: 945 x 1004 km, 82.9° (Epoch: 27 October)

Date Brightness Start Highest point End Pass type
(mag) Time Alt. Az. Time Alt. Az. Time Alt. Az.
30 Oct 6.9 10:15:58 10° E 10:18:41 13° ESE 10:21:25 10° SE visible
31 Oct 6.5 10:38:42 10° NE 10:43:18 22° E 10:47:58 10° SSE visible
02 Nov 7.0 09:47:21 10° E 09:49:04 11° ESE 09:50:48 10° SE visible
03 Nov 6.5 10:09:25 10° ENE 10:13:39 20° ESE 10:17:56 10° SE visible
04 Nov 5.9 10:33:01 10° NE 10:38:23 32° E 10:43:51 10° SSE visible
06 Nov 6.5 09:40:13 10° ENE 09:44:00 17° ESE 09:47:49 10° SE visible
